Regional Weather Roundup
Issued by NWS

Home | Current Version | Previous Version | Graphics & Text | Print | Product List | Glossary On
Versions: 1 2 3 4 5 6 7 8 9 10 11 12 13 14 15 16 17 18 19 20 21 22 23 24 25 26 27 28
000
ASUS45 KCYS 200610
RWRWY

WYOMING REGIONAL WEATHER ROUNDUP
NATIONAL WEATHER SERVICE CHEYENNE WY
1200 AM MDT WED SEP 20 2017

NOTE:  "FAIR" INDICATES FEW OR NO CLOUDS BELOW 12,000 FEET
WITH NO SIGNIFICANT WEATHER AND/OR OBSTRUCTIONS TO VISIBILITY.

WYZ001-200700-
YELLOWSTONE NATIONAL PARK

CITY           SKY/WX    TMP DP  RH WIND       PRES   REMARKS
LK YELLOWSTONE   N/A     30  28  92 VRB6      29.89R WCI  24
6HR MIN TEMP:  28; 6HR MAX TEMP:  30; 6HR PCP:  0.11;

W YELLOWSTONE  NOT AVBL

$$
WYZ002>013-054>058-071-098>099-200700-
NORTHERN WYOMING

CITY           SKY/WX    TMP DP  RH WIND       PRES   REMARKS
JACKSON        FAIR      38  23  55 W17G26    29.90F WCI  28
CODY           CLOUDY    43  30  60 E10G22    29.78F
GREYBULL       CLOUDY    47  38  71 E10       29.79S
6HR MIN TEMP:  46; 6HR MAX TEMP:  56; 6HR PCP: TRACE;

WORLAND        FAIR      38  37  97 CALM      29.80S
6HR MIN TEMP:  38; 6HR MAX TEMP:  50; 6HR PCP:  0.03;

SHERIDAN       FAIR      42  34  73 S3        29.74F
6HR MIN TEMP:  39; 6HR MAX TEMP:  51;

BUFFALO        FAIR      41  35  79 W8        29.76S
6HR MIN TEMP:  39; 6HR MAX TEMP:  48;

GILLETTE       FAIR      39  35  86 VRB3      29.76F
6HR MIN TEMP:  38; 6HR MAX TEMP:  46;

HULETT         FAIR      41  37  87 SW9       29.76F
NEWCASTLE      FAIR      36  36 100 N6        29.79F WCI  31

$$
WYZ014>020-022>026-101>103-200700-
CENTRAL WYOMING

CITY           SKY/WX    TMP DP  RH WIND       PRES   REMARKS
BIG PINEY      FAIR      32  23  69 NW5       29.97S WCI  27
6HR MIN TEMP:  29; 6HR MAX TEMP:  43;

PINEDALE       FAIR      32  27  80 W7        29.97S WCI  26
DUBOIS         MOCLDY    32  25  74 W13       29.88F WCI  22
LANDER           N/A    N/A N/A N/A MISG      29.87R
RIVERTON       FAIR      40  26  57 W10       29.86S WCI  33
6HR MIN TEMP:  39; 6HR MAX TEMP:  52;

CASPER         FAIR      41  29  62 SW16      29.85F
6HR MIN TEMP:  38; 6HR MAX TEMP:  50;

DOUGLAS        FAIR      44  27  51 W13       29.85R
6HR MIN TEMP:  44; 6HR MAX TEMP:  52;


$$
WYZ021-027>030-104>119-200700-
SOUTHERN WYOMING

CITY           SKY/WX    TMP DP  RH WIND       PRES   REMARKS
EVANSTON       FAIR      37  30  75 CALM      30.01S
6HR MIN TEMP:  37; 6HR MAX TEMP:  47;

KEMMERER         N/A     32  30  93 SW6       30.00S WCI  26
FORT BRIDGER   FAIR      34  33  94 W6        30.04S WCI  29
ROCK SPRINGS   FAIR      34  30  85 S8        30.01S WCI  27
6HR MIN TEMP:  34; 6HR MAX TEMP:  44;

DIXON          RAIN      40  36  85 E6        30.04R
RAWLINS        FAIR      38  30  73 W21       29.97R WCI  28
6HR MIN TEMP:  36; 6HR MAX TEMP:  39; 6HR PCP: TRACE;

SARATOGA       FAIR      36  32  87 SW3       30.00S
LARAMIE        CLOUDY    38  30  73 W10       30.00R WCI  31
6HR MIN TEMP:  36; 6HR MAX TEMP:  44; 6HR PCP: TRACE;

CHEYENNE       FAIR      43  33  68 W22G37    29.89R
6HR MIN TEMP:  42; 6HR MAX TEMP:  50; 6HR PCP: TRACE;

TORRINGTON     FAIR      53  30  41 W14G26    29.83R
6HR MIN TEMP:  51; 6HR MAX TEMP:  60;

PINE BLUFFS    MOCLDY    52  27  37 NW36G47   29.84S

$$




USA.gov is the U.S. government's official web portal to all federal, state and local government web resources and services.